When you browse on this site, cookies collect data to enhance your experience and personalize the content and advertising you see.
Visit our Privacy Policy to learn more. By continuing to use the site, you agree to this use of cookies and data.
  • In Belgium
  • List of Countries
  • For 7 days
  • Water Temperature
  • Satellite Maps
  • Weather Map
  • Weather Widgets
  • user-avatar
    Login

    Hourly Weather Kalgoorlie

    Today, 10 December, Monday

    Time Temperature Precipitation Wind Pressure Humidity
    00:00 +23°C° 0.7 mm 11 mps 727 mmHg 68%
    01:00 +23°C° 0.7 mm 10 mps 727 mmHg 71%
    02:00 +23°C° 0 mm 9 mps 727 mmHg 71%
    03:00 +23°C° 0.1 mm 8 mps 727 mmHg 74%
    04:00 +23°C° 0.1 mm 8 mps 727 mmHg 78%
    05:00 +22°C° 0.1 mm 7 mps 727 mmHg 81%
    06:00 +24°C° 0 mm 7 mps 727 mmHg 75%
    07:00 +26°C° 0 mm 7 mps 727 mmHg 69%
    08:00 +28°C° 0 mm 6 mps 727 mmHg 55%
    09:00 +30°C° 0 mm 5 mps 727 mmHg 49%
    10:00 +33°C° 0 mm 5 mps 727 mmHg 42%
    11:00 +35°C° 0 mm 5 mps 726 mmHg 36%
    12:00 +36°C° 0 mm 5 mps 726 mmHg 32%
    13:00 +37°C° 0 mm 5 mps 725 mmHg 29%
    14:00 +38°C° 0 mm 4 mps 724 mmHg 26%
    15:00 +38°C° 0 mm 4 mps 724 mmHg 28%
    16:00 +37°C° 0 mm 3 mps 724 mmHg 30%
    17:00 +36°C° 0 mm 2 mps 723 mmHg 31%
    18:00 +36°C° 0 mm 3 mps 723 mmHg 34%
    19:00 +35°C° 0 mm 3 mps 723 mmHg 36%
    20:00 +34°C° 0 mm 4 mps 723 mmHg 39%
    21:00 +33°C° 0 mm 4 mps 723 mmHg 43%
    22:00 +32°C° 0 mm 5 mps 723 mmHg 46%
    23:00 +30°C° 0 mm 5 mps 723 mmHg 50%

    Tomorrow, 11 December, Tuesday

    Time Temperature Precipitation Wind Pressure Humidity
    00:00 +28°C° 0 mm 6 mps 723 mmHg 58%
    01:00 +27°C° 0 mm 7 mps 723 mmHg 65%
    02:00 +24°C° 0 mm 9 mps 723 mmHg 73%
    03:00 +24°C° 0 mm 8 mps 723 mmHg 74%
    04:00 +23°C° 0 mm 7 mps 723 mmHg 75%
    05:00 +23°C° 0 mm 6 mps 723 mmHg 76%
    06:00 +25°C° 0 mm 5 mps 723 mmHg 70%
    07:00 +27°C° 0 mm 4 mps 724 mmHg 65%
    08:00 +28°C° 0 mm 3 mps 724 mmHg 60%
    09:00 +30°C° 0 mm 3 mps 724 mmHg 52%
    10:00 +32°C° 0 mm 2 mps 724 mmHg 45%
    11:00 +35°C° 0 mm 2 mps 724 mmHg 37%
    12:00 +36°C° 0 mm 3 mps 723 mmHg 33%
    13:00 +36°C° 0 mm 4 mps 723 mmHg 29%
    14:00 +37°C° 0 mm 5 mps 723 mmHg 24%
    15:00 +37°C° 0 mm 5 mps 723 mmHg 24%
    16:00 +37°C° 0 mm 5 mps 723 mmHg 24%
    17:00 +37°C° 0 mm 5 mps 723 mmHg 24%
    18:00 +35°C° 0 mm 6 mps 723 mmHg 28%
    19:00 +34°C° 0 mm 6 mps 724 mmHg 32%
    20:00 +32°C° 0 mm 7 mps 724 mmHg 36%
    21:00 +30°C° 0 mm 7 mps 725 mmHg 42%
    22:00 +28°C° 0 mm 7 mps 725 mmHg 48%
    23:00 +26°C° 0 mm 7 mps 726 mmHg 53%

    Day after tomorrow, 12 December, Wednesday

    Time Temperature Precipitation Wind Pressure Humidity
    00:00 +24°C° 0 mm 7 mps 726 mmHg 55%
    01:00 +23°C° 0 mm 7 mps 726 mmHg 56%
    02:00 +22°C° 0 mm 7 mps 726 mmHg 57%
    03:00 +21°C° 0 mm 6 mps 726 mmHg 57%
    04:00 +20°C° 0 mm 6 mps 727 mmHg 56%
    05:00 +19°C° 0 mm 6 mps 727 mmHg 56%
    06:00 +20°C° 0 mm 6 mps 728 mmHg 55%
    07:00 +21°C° 0 mm 6 mps 728 mmHg 54%
    08:00 +22°C° 0 mm 6 mps 729 mmHg 53%
    09:00 +23°C° 0 mm 6 mps 729 mmHg 48%
    10:00 +26°C° 0 mm 5 mps 729 mmHg 43%
    11:00 +28°C° 0 mm 5 mps 729 mmHg 38%
    12:00 +29°C° 0 mm 4 mps 729 mmHg 34%
    13:00 +30°C° 0 mm 4 mps 728 mmHg 31%
    14:00 +31°C° 0 mm 3 mps 728 mmHg 27%
    15:00 +32°C° 0 mm 4 mps 728 mmHg 27%
    16:00 +32°C° 0 mm 5 mps 728 mmHg 27%
    17:00 +32°C° 0 mm 5 mps 728 mmHg 27%
    18:00 +29°C° 0 mm 7 mps 729 mmHg 33%
    19:00 +27°C° 0 mm 8 mps 729 mmHg 39%
    20:00 +26°C° 0 mm 10 mps 730 mmHg 44%
    21:00 +23°C° 0 mm 10 mps 730 mmHg 47%
    22:00 +22°C° 0 mm 10 mps 731 mmHg 49%
    23:00 +21°C° 0 mm 10 mps 731 mmHg 51%

    13 December, Thursday

    Time Temperature Precipitation Wind Pressure Humidity
    00:00 +19°C° 0 mm 9 mps 731 mmHg 56%
    01:00 +18°C° 0 mm 9 mps 731 mmHg 61%
    02:00 +17°C° 0 mm 9 mps 731 mmHg 66%
    03:00 +16°C° 0 mm 8 mps 731 mmHg 67%
    04:00 +16°C° 0 mm 8 mps 731 mmHg 68%
    05:00 +15°C° 0 mm 8 mps 731 mmHg 70%
    06:00 +16°C° 0 mm 8 mps 731 mmHg 65%
    07:00 +17°C° 0 mm 7 mps 732 mmHg 60%
    08:00 +18°C° 0 mm 7 mps 732 mmHg 55%
    09:00 +21°C° 0 mm 7 mps 732 mmHg 47%
    10:00 +23°C° 0 mm 7 mps 732 mmHg 40%
    11:00 +26°C° 0 mm 7 mps 732 mmHg 33%
    12:00 +28°C° 0 mm 7 mps 731 mmHg 29%
    13:00 +29°C° 0 mm 6 mps 731 mmHg 26%
    14:00 +30°C° 0 mm 6 mps 730 mmHg 23%
    15:00 +30°C° 0 mm 6 mps 730 mmHg 22%
    16:00 +30°C° 0 mm 6 mps 730 mmHg 21%
    17:00 +30°C° 0 mm 6 mps 730 mmHg 19%
    18:00 +29°C° 0 mm 6 mps 730 mmHg 21%
    19:00 +28°C° 0 mm 6 mps 730 mmHg 22%
    20:00 +27°C° 0 mm 6 mps 731 mmHg 24%
    21:00 +26°C° 0 mm 7 mps 731 mmHg 27%
    22:00 +24°C° 0 mm 7 mps 731 mmHg 30%
    23:00 +23°C° 0 mm 8 mps 731 mmHg 33%

    14 December, Friday

    Time Temperature Precipitation Wind Pressure Humidity
    00:00 +22°C° 0 mm 8 mps 731 mmHg 38%
    01:00 +21°C° 0 mm 8 mps 730 mmHg 44%
    02:00 +18°C° 0 mm 8 mps 729 mmHg 49%
    03:00 +18°C° 0 mm 8 mps 730 mmHg 52%
    04:00 +17°C° 0 mm 8 mps 730 mmHg 54%
    05:00 +17°C° 0 mm 7 mps 730 mmHg 57%
    06:00 +18°C° 0 mm 7 mps 730 mmHg 53%
    07:00 +20°C° 0 mm 7 mps 730 mmHg 49%
    08:00 +21°C° 0 mm 7 mps 731 mmHg 45%
    09:00 +24°C° 0 mm 7 mps 730 mmHg 39%
    10:00 +27°C° 0 mm 7 mps 730 mmHg 32%
    11:00 +29°C° 0 mm 7 mps 730 mmHg 25%
    12:00 +30°C° 0 mm 6 mps 729 mmHg 23%
    13:00 +32°C° 0 mm 5 mps 728 mmHg 21%
    14:00 +33°C° 0 mm 5 mps 728 mmHg 19%
    15:00 +33°C° 0 mm 4 mps 727 mmHg 18%
    16:00 +33°C° 0 mm 4 mps 727 mmHg 17%
    17:00 +33°C° 0 mm 4 mps 727 mmHg 17%
    18:00 +32°C° 0 mm 4 mps 727 mmHg 18%
    19:00 +30°C° 0 mm 5 mps 727 mmHg 18%
    20:00 +29°C° 0 mm 5 mps 727 mmHg 19%
    21:00 +28°C° 0 mm 5 mps 728 mmHg 19%
    22:00 +28°C° 0 mm 6 mps 728 mmHg 19%
    23:00 +27°C° 0 mm 6 mps 728 mmHg 19%

    15 December, Saturday

    Time Temperature Precipitation Wind Pressure Humidity
    00:00 +26°C° 0 mm 6 mps 727 mmHg 21%
    01:00 +24°C° 0 mm 6 mps 727 mmHg 23%
    02:00 +23°C° 0 mm 6 mps 727 mmHg 25%
    03:00 +23°C° 0 mm 6 mps 727 mmHg 28%
    04:00 +22°C° 0 mm 6 mps 727 mmHg 31%
    05:00 +21°C° 0 mm 6 mps 727 mmHg 35%
    06:00 +23°C° 0 mm 6 mps 727 mmHg 32%
    07:00 +24°C° 0 mm 7 mps 727 mmHg 30%
    08:00 +27°C° 0 mm 7 mps 727 mmHg 27%
    09:00 +29°C° 0 mm 7 mps 727 mmHg 23%
    10:00 +32°C° 0 mm 6 mps 726 mmHg 19%
    11:00 +34°C° 0 mm 6 mps 726 mmHg 16%
    12:00 +35°C° 0 mm 6 mps 725 mmHg 14%
    13:00 +36°C° 0 mm 5 mps 724 mmHg 13%
    14:00 +37°C° 0 mm 5 mps 724 mmHg 12%
    15:00 +37°C° 0 mm 5 mps 723 mmHg 12%
    16:00 +37°C° 0 mm 5 mps 723 mmHg 12%
    17:00 +37°C° 0 mm 5 mps 723 mmHg 12%
    18:00 +36°C° 0 mm 6 mps 723 mmHg 13%
    19:00 +35°C° 0 mm 7 mps 723 mmHg 14%
    20:00 +34°C° 0 mm 9 mps 723 mmHg 15%
    21:00 +32°C° 0 mm 9 mps 724 mmHg 16%
    22:00 +31°C° 0 mm 10 mps 724 mmHg 17%
    23:00 +29°C° 0 mm 11 mps 724 mmHg 18%
    Show more